Marham, United Kingdom

11:23 AM BST on September 26, 2017 (GMT +0100)
Marham Air Base

Weather History for EGYM - April, 2013

Change the Weather History Date:

Wednesday, April 24, 2013

  Actual Average Record
Temperature  
Mean Temperature 55 °F -  
Max Temperature 69 °F - - ()
Min Temperature 41 °F - - ()
Degree Days  
Heating Degree Days 10    
Growing Degree Days 5 (Base 50)    
Moisture  
Dew Point 48 °F    
Average Humidity 74    
Maximum Humidity 94    
Minimum Humidity 52    
Precipitation  
Precipitation 0.00 in - - ()
Sea Level Pressure  
Sea Level Pressure 30.18 in    
Wind  
Wind Speed 7 mph ()    
Max Wind Speed 17 mph    
Max Gust Speed -    
Visibility 9.1 miles    
Events Rain    
T = Trace of Precipitation, MM = Missing Value Source: Averaged Metar Reports

Daily Weather History Graph

Daily Weather History Graph

Search for Another Location

Airport or City:

Trip Planner

Search our weather history database for the weather conditions in past years. The results will help you decide how hot, cold, wet, or windy it might be!

Date:

Astronomy

Apr. 24, 2013 Rise Set
Actual Time 5:40 AM BST 8:12 PM BST
Civil Twilight 5:01 AM BST 8:51 PM BST
Nautical Twilight 4:13 AM BST 9:40 PM BST
Astronomical Twilight 3:14 AM BST 10:39 PM BST
Moon 6:52 PM BST (4/24) 4:46 AM BST (4/24)
Length of Visible Light 15h 49m
Length of Day
14h 32m
Waxing Gibbous, 97% of the Moon is Illuminated
Apr 24
Waxing Gibbous
Apr 25
Full
May 2
Last Quarter
May 10
New
May 18
First Quarter

Hourly Weather History & Observations

Time (BST) Temp. Windchill Dew Point Humidity Pressure Visibility Wind Dir Wind Speed Gust Speed Precip Events Conditions
12:50 AM 49 °F - 42 °F 70% 30.21 in 16 mi SE 3.5 mph - -   Mostly Cloudy
12:50 AM 50.0 °F - 42.8 °F 76% 30.21 in 6.2 mi SE 3.5 mph - N/A   Mostly Cloudy
1:50 AM 44.6 °F 43.1 °F 41.0 °F 87% 30.18 in 6.2 mi ESE 3.5 mph - N/A   Mostly Cloudy
2:50 AM 46.4 °F 45.2 °F 41.0 °F 81% 30.18 in 6.2 mi SE 3.5 mph - N/A   Overcast
3:50 AM 46 °F - 42 °F 80% 30.20 in 15 mi South 3.5 mph - -   Overcast
3:50 AM 46.4 °F 45.2 °F 42.8 °F 87% 30.18 in 6.2 mi South 3.5 mph - N/A   Overcast
4:50 AM 42.8 °F - 39.2 °F 87% 30.18 in 6.2 mi South 1.2 mph - N/A   Partly Cloudy
5:50 AM 42.8 °F - 41.0 °F 93% 30.18 in 6.2 mi WSW 2.3 mph - N/A   Unknown
6:50 AM 45 °F - 42 °F 84% 30.18 in 12 mi South 3.5 mph - -   Scattered Clouds
6:50 AM 44.6 °F 43.1 °F 41.0 °F 87% 30.15 in - South 3.5 mph - N/A   Clear
7:50 AM 50.0 °F - 44.6 °F 82% 30.15 in - South 5.8 mph - N/A   Clear
8:50 AM 57.2 °F - 46.4 °F 67% 30.15 in - SSW 11.5 mph - N/A   Clear
9:50 AM 59 °F - 49 °F 60% 30.17 in 12 mi SSW 12.7 mph - -   Scattered Clouds
9:50 AM 59.0 °F - 48.2 °F 67% 30.15 in - SSW 12.7 mph - N/A   Clear
10:50 AM 60.8 °F - 50.0 °F 68% 30.15 in - SW 17.3 mph - N/A   Clear
11:50 AM 62.6 °F - 50.0 °F 63% 30.15 in - SW 17.3 mph - N/A   Clear
12:50 PM 63 °F - 51 °F 54% 30.17 in 14 mi WSW 16.1 mph - -   Mostly Cloudy
12:50 PM 62.6 °F - 50.0 °F 63% 30.15 in - WSW 16.1 mph - N/A   Clear
1:50 PM 64.4 °F - 51.8 °F 64% 30.15 in - SW 16.1 mph - N/A   Clear
2:50 PM 64.4 °F - 51.8 °F 64% 30.15 in 6.2 mi SW 17.3 mph - N/A   Mostly Cloudy
3:50 PM 67 °F - 53 °F 52% 30.18 in 16 mi West 16.1 mph - -   Partly Cloudy
3:50 PM 68.0 °F - 53.6 °F 60% 30.15 in 6.2 mi West 16.1 mph - N/A   Mostly Cloudy
4:50 PM 64.4 °F - 53.6 °F 68% 30.18 in 6.2 mi West 16.1 mph - N/A   Mostly Cloudy
5:50 PM 64.4 °F - 53.6 °F 68% 30.18 in 6.2 mi West 13.8 mph - N/A   Mostly Cloudy
6:50 PM 62 °F - 52 °F 62% 30.20 in 19 mi West 10.4 mph - -   Mostly Cloudy
6:50 PM 62.6 °F - 51.8 °F 68% 30.18 in 6.2 mi West 10.4 mph - N/A   Mostly Cloudy
7:50 PM 60.8 °F - 53.6 °F 77% 30.21 in 6.2 mi West 9.2 mph - N/A Rain Light Rain
8:50 PM 59.0 °F - 53.6 °F 82% 30.21 in 6.2 mi West 6.9 mph - N/A Rain Light Rain
9:50 PM 57 °F - 53 °F 82% 30.25 in 16 mi SSW 2.3 mph - - Rain Rain
9:50 PM 57.2 °F - 53.6 °F 88% 30.24 in 6.2 mi SSW 2.3 mph - N/A   Mostly Cloudy
10:50 PM 57.2 °F - 53.6 °F 88% 30.24 in 6.2 mi SE 3.5 mph - N/A   Overcast
11:50 PM 55.4 °F - 53.6 °F 94% 30.24 in 6.2 mi South 1.2 mph - N/A Rain Light Rain